Hourly Data Report for September 17, 2016

SHEARWATER RCS
NOVA SCOTIA

44°37'47.000" N
63°30'48.000" W
24.00 m
8205092
71264
AAW

Download Data

Hourly Data (September 2016)
Hourly Data Report for September 17, 2016
TIME Temp Definition
°C
Dew Point Definition
°C
Rel Hum Definition
%
Wind Dir Definition
10's deg

Wind Spd Definition
km/h
Visibility Definition
km
Stn Press Definition
kPa
Hmdx Definition


Wind Chill Definition


Weather Definition


00:00 12.4 7.9 74 24 9   102.40     LegendNANA
01:00 12.1 7.8 75 25 9   102.44     LegendNANA
02:00 11.4 8.1 80 26 3   102.43     LegendNANA
03:00 10.4 8.0 85 26 5   102.44     LegendNANA
04:00 7.9 6.3 90 0 1   102.37     LegendNANA
05:00 7.8 6.5 92   0   102.38     LegendNANA
06:00 8.1 7.0 93   0   102.36     LegendNANA
07:00 11.3 9.9 91   0   102.41     LegendNANA
08:00 14.4 10.6 78 22 5   102.42     LegendNANA
09:00 17.2 11.6 69 21 10   102.39     LegendNANA
10:00 18.2 10.8 62 20 15   102.36     LegendNANA
11:00 19.3 10.7 58 20 14   102.34     LegendNANA
12:00 20.1 7.4 44 21 16   102.31     LegendNANA
13:00 20.2 9.5 50 21 18   102.25     LegendNANA
14:00 20.4 11.7 57 20 17   102.18     LegendNANA
15:00 19.8 11.7 60 20 19   102.14     LegendNANA
16:00 18.9 12.0 64 21 22   102.11     LegendNANA
17:00 18.9 12.1 65 21 16   102.06     LegendNANA
18:00 17.6 11.8 69 21 13   102.07     LegendNANA
19:00 17.0 11.9 72 21 13   102.07     LegendNANA
20:00 17.0 10.9 67 20 15   102.12     LegendNANA
21:00 15.6 11.6 77 18 7   102.11     LegendNANA
22:00 15.5 12.9 84 17 8   102.06     LegendNANA
23:00 15.8 13.4 86 18 13   102.00     LegendNANA

Notes on Data Quality.

Legend

  • E = Estimated
  • M = Missing
  • NA = Not Available*
  • [empty] = Indicates an unobserved value
Date modified: